Location: Davidson Heights
(40.5834°N, 80.2598°W)
Time: 05:12:06
(UTC+00:00)

Envisat - Visible Passes

Search period start: 25 November 2020 00:00
Search period end: 05 December 2020 00:00
Orbit: 764 x 766 km, 98.1° (Epoch: 24 November)

Date Brightness Start Highest point End Pass type
(mag) Time Alt. Az. Time Alt. Az. Time Alt. Az.
25 Nov 4.4 10:45:40 10° NNE 10:50:27 41° E 10:55:14 10° SSE visible
25 Nov 5.9 23:40:31 10° SW 23:43:53 18° W 23:47:18 10° NW visible
26 Nov 5.8 10:09:53 10° NE 10:13:24 19° E 10:16:53 10° SE visible
26 Nov 3.2 11:47:46 10° N 11:52:41 50° WNW 11:57:33 10° SW visible
26 Nov 4.5 23:02:05 10° SSW 23:06:49 39° W 23:11:35 10° NNW visible
27 Nov 3.3 11:10:51 10° NNE 11:15:57 74° ESE 11:21:01 10° S visible
27 Nov 3.1 22:24:51 10° SSE 22:29:56 89° WSW 22:35:03 10° NNW visible
28 Nov 4.8 10:34:28 10° NNE 10:39:01 32° E 10:43:32 10° SSE visible
28 Nov 5.6 23:28:28 10° SW 23:32:24 23° W 23:36:23 10° NW visible
29 Nov 6.1 09:59:09 10° ENE 10:01:54 14° E 10:04:36 10° ESE visible
29 Nov 3.0 11:36:18 10° N 11:41:20 64° WNW 11:46:21 10° SSW visible
29 Nov 4.0 22:50:28 10° S 22:55:23 50° W 23:00:21 10° NNW visible
30 Nov 3.7 10:59:31 10° NNE 11:04:33 57° E 11:09:32 10° S visible
30 Nov 6.2 23:55:57 10° WSW 23:58:06 13° W 00:00:15 10° WNW visible
01 Dec 5.3 10:23:22 10° NE 10:27:34 26° E 10:31:44 10° SSE visible
01 Dec 5.2 23:16:35 10° SSW 23:20:56 29° W 23:25:19 10° NW visible
02 Dec 6.3 09:49:01 10° ENE 09:50:22 11° E 09:51:42 10° ESE visible
02 Dec 2.9 11:24:52 10° N 11:29:58 81° WNW 11:35:03 10° SSW visible
02 Dec 3.5 22:38:57 10° S 22:43:58 65° WSW 22:49:02 10° NNW visible
03 Dec 4.2 10:48:15 10° NNE 10:53:07 45° E 10:57:58 10° S visible
03 Dec 6.0 23:43:27 10° SW 23:46:35 16° W 23:49:43 10° NW visible
04 Dec 5.6 10:12:21 10° NE 10:16:05 20° E 10:19:46 10° SE visible
04 Dec 3.3 11:50:27 10° N 11:55:18 46° WNW 12:00:08 10° SW visible
04 Dec 4.7 23:04:50 10° SSW 23:09:29 36° W 23:14:10 10° NNW visible
